Other Surface Observations
Issued by NWS

Home | Current Version | Previous Version | Text Only | Print | Product List | Glossary On
Versions: 1 2 3 4 5 6 7 8 9 10 11 12 13 14 15 16 17 18 19 20 21 22 23 24 25 26 27 28 29 30 31 32 33 34 35 36 37 38 39 40 41 42 43 44 45 46 47 48 49 50
246
SXUS52 KTAE 100718
OSOTAE
OSOTAE
North Florida/South Alabama/Southwest Georgia Weather Roundup
National Weather Service Tallahassee Florida
200 AM EST WED FEB 10 2016

Note: "fair" indicates few or no clouds below 12,000 feet with no
significant weather and/or obstructions to visibility.

!FLZ017-115-028-034-025-100800
...North Florida...

CITY           SKY/WX    TMP DP  RH WIND       PRES   REMARKS
TALLAHASSEE    PTCLDY    31  21  66 CALM      30.12S
APALACHICOLA   CLEAR     40  22  48 NW3       30.15R
PERRY          PTCLDY    38  19  45 NW8       30.13S WCI  32
CROSS CITY       N/A     39  24  55 CALM      30.13R
JACKSONVILLE   CLEAR     33  25  72 W6        30.08S WCI  28
$$

!FLZ112-006-005-002-011-100800
...Florida Panhandle...

CITY           SKY/WX    TMP DP  RH WIND       PRES   REMARKS
MARIANNA       CLEAR     34  23  64 SW3       30.12S
BONIFAY        FAIR      31  27  85 CALM      30.14S
PANAMA CITY NW FAIR      33  28  81 CALM      30.14R
TYNDALL AFB    CLEAR     36  27  70 CALM      30.15R
TYND DRONE APT FAIR      36  30  78 MISG      30.15R
DE FUNIAK SPR  FAIR      37  18  47 W5        30.15S WCI  33
EGLIN AFB      CLEAR     31  20  63 NW7       30.14S WCI  25
DESTIN         CLEAR     41  25  53 CALM      30.15S
HURLBURT       CLEAR     32  27  83 N2        30.15R
CRESTVIEW      CLEAR     27  23  85 W3        30.16S
PENSACOLA      CLEAR     38  22  52 NW7       30.16R WCI  33
$$

!ALZ063-066-100800
...South Alabama...

CITY           SKY/WX    TMP DP  RH WIND       PRES   REMARKS
DOTHAN         CLEAR     34  19  54 NW9       30.14R WCI  27
OZARK CAIRNS   CLEAR     33  20  59 NW6       30.12R WCI  27
FT RUCKER HELI CLEAR     32  20  61 NW5       30.13R WCI  27
RUCKER HELI 3  FAIR      33  20  58 NW8G14    30.14R WCI  26
RUCKER HELI 2  NOT AVBL
FLORALA APT    CLEAR     34  21  59 CALM      30.16R
ANDALUSIA      CLEAR     37  20  50 N8        30.15R WCI  31
TROY           PTCLDY    32  17  54 W5        30.14R WCI  27
EUFALA         FAIR      27  21  78 CALM      30.11R
MOBILE         PTCLDY    36  23  59 NW6       30.19R WCI  31
$$

!GAZ120>161-100800
...Southwest and South Central Georgia...

CITY           SKY/WX    TMP DP  RH WIND       PRES   REMARKS
THOMASVILLE    FAIR      32  27  80 SW3       30.10S
BAINBRIDGE     CLEAR     32  25  74 SW6       30.11S WCI  26
MOODY AFB      CLEAR     35  19  52 W7        30.07F WCI  29
VALDOSTA       CLEAR     32  24  72 CALM      30.10S
MOULTRIE       PTCLDY    32  25  74 W3        30.10S
BLAKELY        CLEAR     34  27  75 CALM      30.12R
ALBANY         CLEAR     27  20  75 NW3       30.12R
TIFTON         FAIR      30  26  84 CALM      30.07S
FITZGERALD     FAIR      32  25  76 CALM      30.09R
CORDELE        FAIR      32  27  80 W3        30.10R
AMERICUS       FAIR      30  23  74 W3        30.10R
HOMERVILLE     FAIR      32  32 100 CALM      30.09S
$$

!GMZ750-755-770-775-100800
...Coastal and Buoy Obs...

STATION/POSITION TIME  TEMP    WIND        PRES    VSBY  WAVE
                       AIR SEA DIR/SP/G                  HT/PER
                 (UTC) (F)     (DEG/KT/KT) (MB)    (MI)  (FT/S)
KEATON BEACH     0700   41     350/  2/  3 1019.9R
CEDAR KEY        0700   49     330/ 10/ 19 1020.6R
C TOWER          NOT AVBL
APALACHICOLA BUO 0650   58 67  310/ 23/ 29 1019.6R        11/ 9
PANAMA CITY BUOY 0650   57 68  310/ 19/ 25 1021.1R         9/ 9
MOBILE BUOY      NOT AVBL
ORANGE BCH AL BU 0650   54 65  310/ 21/ 27 1020.6F         4/ 6
$$




USA.gov is the U.S. government's official web portal to all federal, state and local government web resources and services.